Tracking 29892 objects as of 21-Nov-2024
HD Live streaming from Space Station
objects crossing your sky now

STARLINK-6293

Track STARLINK-6293 now!
10-day predictions
STARLINK-6293 is classified as:


NORAD ID: 57354
Int'l Code: 2023-099AC
Perigee: 565.3 km
Apogee: 567.1 km
Inclination: 43.0 °
Period: 95.8 minutes
Semi major axis: 6937 km
RCS: Unknown
Launch date: July 16, 2023
Source: United States (US)
Launch site: AIR FORCE EASTERN TEST RANGE (AFETR)
Your satellite tracking list
Your tracking list is empty




NASA's NSSDC Master Catalog

Two Line Element Set (TLE):
1 57354U 23099AC  24325.90528274  .00000473  00000-0  50118-4 0  9993
2 57354  43.0040 290.6533 0001347 262.4531  97.6159 15.02538781 74999
Source of the keplerian elements: AFSPC